Weather History for MROC - December, 2013

Change the Weather History Date:

Monday, December 9, 2013

  Actual Average Record
Temperature  
Mean Temperature 74 °F -  
Max Temperature 84 °F 79 °F 85 °F (2012)
Min Temperature 65 °F 64 °F 61 °F (2012)
Cooling Degree Days 10    
Growing Degree Days 24 (Base 50)    
Moisture  
Dew Point 61 °F    
Average Humidity 71    
Maximum Humidity 100    
Minimum Humidity 33    
Precipitation  
Precipitation 0.04 in 0.03 in - ()
Sea Level Pressure  
Sea Level Pressure 29.98 in    
Wind  
Wind Speed 7 mph ()    
Max Wind Speed 12 mph    
Max Gust Speed -    
Visibility 6.6 miles    
Events Fog , Rain    
Averages and records for this station are not official NWS values.
T = Trace of Precipitation, MM = Missing Value Source: Averaged Metar Reports

Daily Weather History Graph

Daily Weather History Graph

Search for Another Location

Airport or City:

Trip Planner

Search our weather history database for the weather conditions in past years. The results will help you decide how hot, cold, wet, or windy it might be!

Date:

Astronomy

Dec. 09, 2013 Rise Set
Actual Time 5:42 AM CST 5:16 PM CST
Civil Twilight 5:19 AM CST 5:38 PM CST
Nautical Twilight 4:53 AM CST 6:05 PM CST
Astronomical Twilight 4:27 AM CST 6:31 PM CST
Moon 11:37 AM CST (12/9) No Moon Set
Length of Visible Light 12h 18m
Length of Day
11h 33m
Waxing Crescent, 51% of the Moon is Illuminated
Dec 9
Waxing Crescent
Dec 17
Full
Dec 25
Last Quarter
Jan 1
New
Jan 7
First Quarter

Hourly Weather History & Observations

Time (CST) Temp. Heat Index Dew Point Humidity Pressure Visibility Wind Dir Wind Speed Gust Speed Precip Events Conditions
12:00 AM 68 °F - 58 °F 62% 29.85 in 12 mi East 9.2 mph - -   Clear
12:00 AM 68.0 °F - 57.2 °F 68% 30.03 in - East 9.2 mph - N/A   Clear
1:00 AM 68.0 °F - 57.2 °F 68% 30.01 in - ESE 6.9 mph - N/A   Clear
2:00 AM 68.0 °F - 57.2 °F 68% 30.00 in - East 8.1 mph - N/A   Clear
3:00 AM 67 °F - 58 °F 64% 29.84 in 12 mi East 8.1 mph - -   Clear
3:00 AM 68.0 °F - 57.2 °F 68% 29.99 in - East 8.1 mph - N/A   Clear
4:00 AM 66.2 °F - 57.2 °F 73% 29.99 in - ENE 4.6 mph - N/A   Clear
5:00 AM 68.0 °F - 57.2 °F 68% 30.00 in - East 6.9 mph - N/A   Clear
6:00 AM 68 °F - 57 °F 60% 29.90 in 12 mi East 9.2 mph - -   Clear
6:00 AM 68.0 °F - 57.2 °F 68% 30.02 in - East 6.9 mph - N/A   Clear
7:00 AM 69.8 °F - 57.2 °F 64% 30.04 in - ESE 9.2 mph - N/A   Clear
8:00 AM 71.6 °F - 57.2 °F 60% 30.05 in - ESE 10.4 mph - N/A   Clear
9:00 AM 77 °F - 57 °F 40% 29.91 in 12 mi ESE 10.4 mph - -   Clear
9:00 AM 77.0 °F - 57.2 °F 50% 30.05 in - ESE 10.4 mph - N/A   Clear
10:00 AM 78.8 °F - 55.4 °F 44% 30.04 in - ENE 11.5 mph - N/A   Clear
11:00 AM 82.4 °F 82.0 °F 57.2 °F 42% 30.02 in - East 10.4 mph - N/A   Clear
12:00 PM 80 °F - 56 °F 33% 29.84 in 12 mi ESE 9.2 mph - -   Scattered Clouds
12:00 PM 80.6 °F 80.5 °F 55.4 °F 42% 29.99 in 6.2 mi ESE 9.2 mph - N/A   Mostly Cloudy
1:00 PM 84.2 °F 83.0 °F 55.4 °F 37% 29.97 in 6.2 mi East 6.9 mph - N/A   Scattered Clouds
2:00 PM 78.8 °F - 68.0 °F 69% 29.95 in 6.2 mi WSW 11.5 mph - N/A   Scattered Clouds
3:00 PM 78 °F - 68 °F 63% 29.81 in 12 mi WSW 11.5 mph - -   Partly Cloudy
3:00 PM 78.8 °F - 68.0 °F 69% 29.95 in 6.2 mi WSW 11.5 mph - N/A   Mostly Cloudy
4:00 PM 75.2 °F - 68.0 °F 78% 29.96 in 6.2 mi WSW 10.4 mph - N/A   Scattered Clouds
5:00 PM 69.8 °F - 68.0 °F 94% 29.98 in 5.0 mi WSW 11.5 mph - N/A Fog Fog
5:18 PM 69.8 °F - 68.0 °F 94% 29.99 in 2.5 mi WSW 9.2 mph - N/A Rain Light Rain
6:00 PM 69 °F - 69 °F 98% 29.89 in 2 mi West 6.9 mph - -   Overcast
6:00 PM 68.0 °F - 68.0 °F 100% 30.00 in 1.9 mi West 6.9 mph - N/A Rain Rain
7:00 PM 68.0 °F - 68.0 °F 100% 30.03 in 2.5 mi WSW 6.9 mph - N/A   Mostly Cloudy
8:00 PM 68.0 °F - 68.0 °F 100% - 3.1 mi Calm Calm - N/A   Scattered Clouds
9:00 PM 67 °F - 67 °F 100% 29.94 in 3 mi West 4.6 mph - -   Mist
9:00 PM 68.0 °F - 68.0 °F 100% 30.07 in 3.1 mi West 4.6 mph - N/A   Scattered Clouds
10:00 PM 66.2 °F - 66.2 °F 100% 30.07 in - Calm Calm - N/A   Clear
11:00 PM 66.2 °F - 62.6 °F 88% 30.05 in - NE 6.9 mph - N/A   Clear